OneWeb SL0353

operational
NORAD ID: 49282 Int'l Des: 2021-090 Owner: ONEWEBN Country: UK Constellation: oneweb
LEOCIRCULARPOLARONEWEB_TYPE

OneWeb SL0353について

説明を読み込み中...

リアルタイム位置

3D地球を読み込み中...

次回通過

高度履歴

Altitude vs Time

uPlot chart will show altitude changes over time

軌道要素

1 49282U 21090D 26035.30905622 .00000236 00000-0 60138-3 0 9992
2 49282 87.9030 316.1946 0001448 72.3599 287.7689 13.14503885210127
Epoch: Feb 4, 2026 • Age: 16 hours

現在のステータス

高度 1222.1 km
速度 7.24 km/s
衛星直下点 -41.38°S, 175.66°W
打ち上げ日 Oct 14, 2021
運用期間 4.3 years
タイプ internet

技術仕様

分類 Payload
質量 148.00 kg
乾燥質量 140.00 kg
総質量 148.00 kg
長さ 1.30 m
直径 1.00 m
スパン 5.00 m
形状 Trapezoid+2 pan
製造者 ONEWUS
バスタイプ ARROW
フェーズステータス In Orbit
所有者/国 ONEWEBN/UK

大規模コンステレーション

Loading constellations...